Regional Weather Roundup
Issued by NWS

Home | Current Version | Previous Version | Graphics & Text | Print | Product List | Glossary On
Versions: 1 2 3 4 5 6 7 8 9 10 11 12 13 14 15 16 17 18 19 20 21 22 23 24 25 26 27 28 29 30 31 32 33 34 35 36 37 38 39 40 41 42 43 44 45 46 47 48 49 50
000
ASUS43 KMPX 310001
RWRMN
WEATHER ROUNDUP FOR MINNESOTA
NATIONAL WEATHER SERVICE TWIN CITIES/CHANHASSEN MN
700 PM CDT WED JUL 30 2014


NOTE: "FAIR" INDICATES FEW OR NO CLOUDS BELOW 12,000 FEET WITH NO
SIGNIFICANT WEATHER AND/OR OBSTRUCTIONS TO VISIBILITY. N/A MEANS
CURRENT SKY AND/OR WEATHER CONDITIONS ARE NOT AVAILABLE.

MNZ060>063-068>070-310100-
   Twin Cities Metro

CITY           SKY/WX    TMP DP  RH WIND       PRES   REMARKS
TWIN CITIES    MOSUNNY   79  54  41 NW15      30.03S
6HR MIN TEMP:  79; 6HR MAX TEMP:  83;

ST PAUL        SUNNY     78  53  41 W15       30.02F
CRYSTAL        SUNNY     79  53  40 W12       30.02S
BLAINE         MOSUNNY   79  54  41 W12       30.03S
LAKEVILLE      SUNNY     73  57  56 W7        30.04S
EDEN PRAIRIE   SUNNY     79  54  41 W9        30.03S
6HR MIN TEMP:  78; 6HR MAX TEMP:  82;

SOUTH ST PAUL  SUNNY     78  52  39 W7        30.02S
LAKE ELMO      FAIR      77  55  47 NW5       30.03S
$$
MNZ001>005-007-008-013>017-022>024-027-028-310100-
   Northwest Minnesota

CITY           SKY/WX    TMP DP  RH WIND       PRES   REMARKS
BEMIDJI        SUNNY     74  54  48 NW12      30.05S
HALLOCK        SUNNY     79  55  44 NW5       30.03F
ROSEAU         SUNNY     77  61  57 W9        30.02F
WARROAD        SUNNY     77  63  61 W5        30.02S
THIEF RVR FALL SUNNY     75  54  46 NW9       30.05F
CROOKSTON      SUNNY     77  57  50 N6        30.05S
FOSSTON        SUNNY     73  55  53 NW6       30.07S
DETROIT LAKES  SUNNY     73  52  46 NW5       30.08F
MOORHEAD       MOSUNNY   79  57  47 N6        30.06S
PARK RAPIDS    SUNNY     75  52  44 NW13      30.06S
$$
MNZ006-009>011-018-025>026-310100-
   North Central Minnesota

CITY           SKY/WX    TMP DP  RH WIND       PRES   REMARKS
BAUDETTE       SUNNY     76  58  53 NW5       30.01F
FLAG ISLAND    PTSUNNY   75  61  60 NW6       29.99S
INTL FALLS     SUNNY     74  58  57 NW8       29.98F
6HR MIN TEMP:  74; 6HR MAX TEMP:  79;

WASKISH        MOSUNNY   75  63  64 W7        30.02S
BIG FORK       MOSUNNY   75  57  53 W5        30.02S
LONGVILLE      SUNNY     73  61  64 NW3       30.04F
GRAND RAPIDS   SUNNY     73  55  53 NW10      30.02F
CRANE LAKE     MOSUNNY   72  57  60 N5        29.99R
ORR            MOSUNNY   73  55  53 NW8       29.97S
COOK           SUNNY     75  57  53 NW6       29.99S
$$
MNZ012-019>021-037-310100-
   Northeast Minnesota

CITY           SKY/WX    TMP DP  RH WIND       PRES   REMARKS
DULUTH         MOSUNNY   75  57  53 NW9       29.98S
6HR MIN TEMP:  73; 6HR MAX TEMP:  79;

ELY            MOSUNNY   70  61  73 NW5       29.97S
HIBBING        MOSUNNY   76  55  48 NW13      30.00S
EVELETH        MOSUNNY   73  55  53 NW8       30.00S
DULUTH HARBOR  SUNNY     77  61  57 NW12      29.96R
TWO HARBORS    SUNNY     73  57  56 NW3       29.94S
SILVER BAY     SUNNY     72  63  73 CALM      29.94R
GRAND MARAIS     N/A     55  50  83 CALM      29.94R
G MARAIS ARPRT MOSUNNY   66  48  52 N5        29.98S
$$
MNZ029>031-032-039>041-046>048-054>057-064-310100-
   West Central Minnesota

CITY           SKY/WX    TMP DP  RH WIND       PRES   REMARKS
FERGUS FALLS   MOSUNNY   77  52  41 N5        30.05F
WHEATON        SUNNY     75  55  50 W5        30.08F
MORRIS         SUNNY     75  55  50 W6        30.07S
ALEXANDRIA     SUNNY     76  53  44 NW8       30.09F
ELBOW LAKE     FAIR      75  56  51 NW3       30.06F
WADENA         SUNNY     73  55  53 NW7       30.07S
GLENWOOD       SUNNY     75  52  43 NW8       30.09S
APPLETON       SUNNY     79  54  41 NW6       30.07F
BENSON         SUNNY     77  54  44 N6        30.07F
ORTONVILLE     SUNNY     77  54  44 N7        30.08S
MADISON        SUNNY     79  57  47 N5        30.08S
WILLMAR        FAIR      77  52  41 NW7       30.08F
$$
MNZ033>034-036-042>043-049>051-058-059-310100-
   Central Minnesota

CITY           SKY/WX    TMP DP  RH WIND       PRES   REMARKS
ST CLOUD       SUNNY     80  52  37 W12       30.04S
6HR MIN TEMP:  80; 6HR MAX TEMP:  84;

SAUK CENTRE    FAIR      76  55  47 NW9       30.07S
PAYNESVILLE    MOSUNNY   73  54  51 W7        30.07S
AITKIN         SUNNY     75  59  57 NW3       30.02S
PINE RIVER     SUNNY     75  57  53 NW6       30.07F
BRAINERD       SUNNY     75  56  51 NW7       30.04F
STAPLES        SUNNY     73  52  46 NW9       30.06S
LONG PRAIRIE   FAIR      73  54  49 W9        30.07S
LITTLE FALLS   SUNNY     77  50  38 W9        30.05F
LITCHFIELD     SUNNY     77  57  50 W7        30.07S
BUFFALO        SUNNY     77  54  44 W8        30.05S
MAPLE LAKE     SUNNY     76  58  53 NW5       30.06S
$$
MNZ037-044-045-052-053-310100-
   East Central Minnesota

CITY           SKY/WX    TMP DP  RH WIND       PRES   REMARKS
PRINCETON      MOSUNNY   79  57  47 W8        30.03F
MORA           SUNNY     73  55  53 W5        30.04S
CAMBRIDGE      SUNNY     79  61  53 W8        30.01S
RUSH CITY      SUNNY     75  59  58 CALM      30.02S
MOOSE LAKE     SUNNY     73  57  56 NW6       29.99S
HINCKLEY       FAIR      73  59  60 W6        30.01S
CLOQUET        SUNNY     75  55  50 W10G16    29.99F
MCGREGOR       SUNNY     73  57  56 NW8       30.02F
$$
MNZ071>073-080-081-089-090-097-098-310100-
   Southwest Minnesota

CITY           SKY/WX    TMP DP  RH WIND       PRES   REMARKS
MONTEVIDEO     SUNNY     79  55  44 N5        30.08F
GRANITE FALLS  SUNNY     76  57  51 NW3       30.09F
CANBY          SUNNY     78  55  45 NE5       30.09F
MARSHALL       SUNNY     75  55  50 N6        30.08S
REDWOOD FALLS  SUNNY     77  56  48 NW6       30.07F
OLIVIA         SUNNY     77  55  47 NW5       30.07S
PIPESTONE      SUNNY     75  54  46 NW5       30.11F
WINDOM         SUNNY     73  55  53 NW3       30.10F
WORTHINGTON    SUNNY     73  54  49 N5        30.12F
JACKSON        SUNNY     73  54  49 NW5       30.11F
TRACY          SUNNY     76  56  49 CALM      30.10S
SLAYTON        MOSUNNY   75  52  43 CALM      30.12S
$$
MNZ065>067-074>077-082>085-091>093-310100-
   South Central Minnesota

CITY           SKY/WX    TMP DP  RH WIND       PRES   REMARKS
MANKATO        SUNNY     75  55  50 W9        30.07R
NEW ULM        SUNNY     75  55  50 NW8       30.07S
ST JAMES       SUNNY     77  55  47 W6        30.09S
FAIRMONT       SUNNY     75  48  38 NW7       30.09S
GLENCOE        SUNNY     77  55  45 W9        30.06S
FARIBAULT      SUNNY     79  54  41 W6        30.06S
OWATONNA       SUNNY     75  55  50 W7        30.06S
WASECA         SUNNY     72  54  53 W5        30.08S
ALBERT LEA     MOSUNNY   75  57  53 NW6       30.07S
$$
MNZ078>079-086>088-094>096-310100-
   Southeast Minnesota

CITY           SKY/WX    TMP DP  RH WIND       PRES   REMARKS
ROCHESTER      SUNNY     75  59  57 NW7       30.06F
6HR MIN TEMP:  75; 6HR MAX TEMP:  79;

RED WING       SUNNY     79  55  44 W7        30.00F
STANTON        SUNNY     77  56  47 NW9       30.03S
DODGE CENTER   SUNNY     75  57  53 NW8       30.06S
WINONA         MOSUNNY   77  59  53 CALM      30.01F
AUSTIN         SUNNY     75  55  50 NW8       30.06S
PRESTON        SUNNY     73  65  75 NW3       30.06F
$$
ABBREVIATIONS USED IN REMARKS
   TC - TEMPERATURES IN CELSIUS
  WCI - WIND CHILL INDEX
   HX - HEAT INDEX
  VSB - VISIBILITY
$$


USA.gov is the U.S. government's official web portal to all federal, state and local government web resources and services.